Regional Weather Roundup
Issued by NWS

Home | Current Version | Previous Version | Graphics & Text | Print | Product List | Glossary On
Versions: 1 2 3 4 5 6 7 8 9 10 11 12 13 14 15 16 17 18 19 20 21 22 23 24 25 26 27 28 29 30 31 32 33 34 35 36 37 38 39 40 41 42 43 44 45 46 47 48 49 50
924
ASUS44 KLIX 201505
RWRLA
LOUISIANA WEATHER ROUNDUP
NATIONAL WEATHER SERVICE NEW ORLEANS LA
1000 AM CDT MON OCT 20 2014

NOTE: "FAIR" INDICATES FEW OR NO CLOUDS BELOW 12,000 FEET WITH NO
      SIGNIFICANT WEATHER AND/OR OBSTRUCTIONS TO VISIBILITY.
      SKY/WX - SKY CONDITION AND SIGNIFICANT WEATHER.
      TMP - AIR TEMPERATURE.    DP   - DEWPOINT TEMPERATURE.
      RH  - RELATIVE HUMIDITY.  PRES - PRESSURE.
      HX  - HEAT INDEX.         WCI  - WIND CHILL INDEX.

*  THESE STATIONS ARE NOT NWS OR FAA STATIONS AND ARE NOT UNDER
   NWS QUALITY CONTROL.

LAZ040-048-061>063-065-066-069-201600-
SOUTHEAST LOUISIANA

CITY           SKY/WX    TMP DP  RH WIND       PRES   REMARKS
N.O. AUDUBON     N/A     75  58  54 MISG        N/A
N.O. INTL ARPT MOSUNNY   72  57  59 NE12      30.07R
N.O. LAKEFRONT SUNNY     71  56  58 NE9       30.08R
N.O. DOWNTOWN* FAIR      72  48  43 NE5       30.08R
SLIDELL        SUNNY     67  54  63 N5        30.07S
BATON ROUGE    MOSUNNY   61  52  72 NE5       30.08S
BOOTHVILLE     SUNNY     76  61  59 E6        30.06R
BELLE CHASSE   MOSUNNY   73  57  57 NE6       30.07R
BOGALUSA*        N/A     65  53  64 CALM      30.10S
NEW ROADS*     FAIR      65  53  66 CALM      30.09S
GONZALES*      FAIR      67  58  70 CALM      30.07S
HAMMOND*       PTSUNNY   70  50  49 CALM      30.09S
HOUMA*         MOSUNNY   72  63  73 NE9       30.05F
PORT FOURCHON* SUNNY     75  66  73 NE8G16    30.08S

$$

LAZ041-044-053-054-201600-
SOUTHWEST LOUISIANA

CITY           SKY/WX    TMP DP  RH WIND       PRES   REMARKS
LAKE CHARLES   SUNNY     68  58  70 NE7       30.08R
LAFAYETTE      SUNNY     66  58  75 NE3       30.08R
PATTERSON      NOT AVBL
SALT POINT       N/A     72  61  68 VRB3      30.05R
NEW IBERIA     SUNNY     69  60  73 NE7       30.08R
CHENAULT AIRPK NOT AVBL

$$

LAZ027-028-201600-
CENTRAL LOUISIANA

CITY           SKY/WX    TMP DP  RH WIND       PRES   REMARKS
FORT POLK      SUNNY     66  53  62 VRB2      30.10R
ALEXANDRIA INT SUNNY     62  54  74 N3        30.09S
ALEXANDRIA     SUNNY     62  52  69 VRB3      30.10S

$$

LAZ001-002-201600-
NORTHWEST LOUISIANA

CITY           SKY/WX    TMP DP  RH WIND       PRES   REMARKS
SHREVEPORT     MOSUNNY   63  53  70 CALM      30.12R
BARKSDALE AFB  SUNNY     61  49  64 E2        30.12S
DTN SHREVEPORT SUNNY     61  51  70 CALM      30.12S

$$

LAZ014-016-201600-
NORTHEAST LOUISIANA

CITY           SKY/WX    TMP DP  RH WIND       PRES   REMARKS
MONROE         SUNNY     62  53  72 CALM      30.13R
TALLULAH       SUNNY     62  52  69 CALM      30.12S

$$




USA.gov is the U.S. government's official web portal to all federal, state and local government web resources and services.